Morrisville, VT

12:15 PM EST on November 18, 2019 (GMT -0500)
Morrisville Stowe State

Weather History for KMVL - September, 2019

Change the Weather History Date:

Friday, September 13, 2019

  Actual Average Record
Temperature  
Mean Temperature 52 °F 59 °F  
Max Temperature 66 °F 71 °F 86 °F (2005)
Min Temperature 37 °F 47 °F 36 °F (2014)
Degree Days  
Heating Degree Days 13 7  
Month to date heating degree days 86 67  
Since 1 July heating degree days 151 162  
Cooling Degree Days 0 1  
Month to date cooling degree days 4 13  
Year to date cooling degree days 247 260  
Growing Degree Days 2 (Base 50)    
Moisture  
Dew Point 41 °F    
Average Humidity 80    
Maximum Humidity 100    
Minimum Humidity 42    
Precipitation  
Precipitation 0.00 in 0.11 in 0.50 in (2013)
Month to date precipitation 2.00 1.31  
Year to date precipitation 29.23 25.07  
Sea Level Pressure  
Sea Level Pressure 30.44 in    
Wind  
Wind Speed 2 mph ()    
Max Wind Speed 22 mph    
Max Gust Speed 35 mph    
Visibility 5.0 miles    
Events Fog    
T = Trace of Precipitation, MM = Missing Value Source: Averaged Metar Reports

Daily Weather History Graph

Daily Weather History Graph

Search for Another Location

Airport or City:

Astronomy

Sep. 13, 2019 Rise Set
Actual Time 6:26 AM EDT 7:05 PM EDT
Civil Twilight 5:57 AM EDT 7:34 PM EDT
Nautical Twilight 5:22 AM EDT 8:09 PM EDT
Astronomical Twilight 4:46 AM EDT 8:45 PM EDT
Moon 7:20 PM EDT (9/13) 5:36 AM EDT (9/13)
Length of Visible Light 13h 37m
Length of Day
12h 38m
Full, 100% of the Moon is Illuminated
Sep 13
Full
Sep 14
Full
Sep 21
Last Quarter
Sep 28
New
Oct 5
First Quarter

Hourly Weather History & Observations

Time (EDT) Temp. Dew Point Humidity Pressure Visibility Wind Dir Wind Speed Gust Speed Precip Events Conditions
12:36 AM 39.9 °F 39.0 °F 97% 30.40 in 1.8 mi Calm Calm - N/A   Overcast
12:47 AM 41.0 °F 39.0 °F 93% 30.41 in 1.0 mi Calm Calm - N/A   Mist
12:52 AM 41.0 °F 39.2 °F 93% 30.41 in 2.0 mi Calm Calm - N/A   Overcast
12:54 AM 41.0 °F 39.0 °F 93% 30.43 in 2.5 mi Calm Calm - N/A   Overcast
1:10 AM 41.0 °F 39.0 °F 93% 30.41 in 1.8 mi Calm Calm - N/A   Overcast
1:21 AM 39.9 °F 39.0 °F 97% 30.42 in 3.0 mi Calm Calm - N/A   Overcast
1:28 AM 39.9 °F 39.0 °F 97% 30.42 in 1.5 mi Calm Calm - N/A   Overcast
1:30 AM 39.9 °F 39.0 °F 97% 30.42 in 0.8 mi Calm Calm - N/A   Mist
1:54 AM 39.0 °F 39.0 °F 100% 30.44 in 0.5 mi Calm Calm - N/A Fog Fog
1:59 AM 39.0 °F 39.0 °F 100% 30.42 in 1.2 mi Calm Calm - N/A   Overcast
2:02 AM 39.0 °F 39.0 °F 100% 30.42 in 0.8 mi Calm Calm - N/A   Mist
2:54 AM 39.9 °F 39.0 °F 97% 30.44 in 0.5 mi Calm Calm - N/A Fog Fog
3:54 AM 39.0 °F 37.9 °F 96% 30.46 in 0.5 mi Calm Calm - N/A Fog Fog
4:54 AM 37.9 °F 37.0 °F 97% 30.47 in 0.5 mi Calm Calm - N/A Fog Fog
5:54 AM 37.9 °F 37.0 °F 97% 30.48 in 0.5 mi Calm Calm - N/A Fog Fog
6:54 AM 37.9 °F 37.0 °F 97% 30.51 in 0.2 mi Calm Calm - N/A Fog Fog
7:54 AM 37.9 °F 37.9 °F 100% 30.54 in 0.2 mi Calm Calm - N/A Fog Fog
8:54 AM 42.1 °F 42.1 °F 100% 30.55 in 0.8 mi Calm Calm - N/A   Mist
8:56 AM 43.0 °F 42.1 °F 97% 30.53 in 1.8 mi Calm Calm - N/A   Mostly Cloudy
8:58 AM 43.0 °F 43.0 °F 100% 30.53 in 4.0 mi Calm Calm - N/A   Mostly Cloudy
9:13 AM 45.0 °F 43.0 °F 93% 30.52 in 10.0 mi Calm Calm - N/A   Scattered Clouds
9:54 AM 51.1 °F 46.0 °F 83% 30.53 in 10.0 mi Calm Calm - N/A   Clear
10:54 AM 59.0 °F 46.0 °F 62% 30.52 in 10.0 mi South 3.5 mph - N/A   Clear
12:54 PM 64.9 °F 44.1 °F 47% 30.49 in 10.0 mi South 9.2 mph - N/A   Clear
1:54 PM 66.0 °F 42.1 °F 42% 30.47 in 10.0 mi SSE 10.4 mph 18.4 mph N/A   Clear
2:54 PM 66.9 °F 43.0 °F 42% 30.45 in 10.0 mi South 10.4 mph 18.4 mph N/A   Clear
3:54 PM 66.0 °F 43.0 °F 43% 30.43 in 10.0 mi South 9.2 mph 20.7 mph N/A   Clear
4:54 PM 66.0 °F 44.1 °F 45% 30.43 in 10.0 mi South 5.8 mph - N/A   Clear
5:54 PM 63.0 °F 44.1 °F 50% 30.41 in 10.0 mi South 10.4 mph - N/A   Clear
6:54 PM 60.1 °F 43.0 °F 53% 30.40 in 10.0 mi South 8.1 mph - N/A   Clear
7:54 PM 57.9 °F 43.0 °F 58% 30.38 in 10.0 mi SSE 8.1 mph - N/A   Clear
8:54 PM 59.0 °F 43.0 °F 55% 30.37 in 10.0 mi South 10.4 mph - N/A   Clear
9:54 PM 57.9 °F 43.0 °F 58% 30.37 in 10.0 mi South 11.5 mph - N/A   Clear
10:54 PM 55.9 °F 42.1 °F 60% 30.34 in 10.0 mi South 15.0 mph 26.5 mph N/A   Clear
11:54 PM 55.0 °F 42.1 °F 62% 30.33 in 10.0 mi South 16.1 mph 25.3 mph N/A   Clear